TimeMDT,TemperatureF,Dew PointF,Humidity,Sea Level PressureIn,VisibilityMPH,Wind Direction,Wind SpeedMPH,Gust SpeedMPH,PrecipitationIn,Events,Conditions,WindDirDegrees,DateUTC
12:53 AM,61.0,57.0,87,30.00,10.0,SE,13.8,-,N/A,,Clear,140,2013-07-25 06:53:00
1:53 AM,60.1,55.9,86,30.00,10.0,SSE,16.1,21.9,N/A,,Clear,150,2013-07-25 07:53:00
2:53 AM,59.0,55.0,87,29.98,10.0,SSE,11.5,-,N/A,,Clear,160,2013-07-25 08:53:00
3:53 AM,57.9,55.0,90,29.96,10.0,SSW,6.9,-,N/A,,Clear,200,2013-07-25 09:53:00
4:53 AM,57.9,54.0,87,29.94,10.0,SSW,8.1,-,N/A,,Clear,200,2013-07-25 10:53:00
5:53 AM,57.0,54.0,89,30.00,10.0,WSW,5.8,-,N/A,,Clear,240,2013-07-25 11:53:00
6:53 AM,61.0,55.0,81,29.99,10.0,Calm,Calm,-,N/A,,Clear,0,2013-07-25 12:53:00
7:53 AM,63.0,55.9,78,29.99,10.0,Calm,Calm,-,N/A,,Clear,0,2013-07-25 13:53:00
8:53 AM,64.0,57.0,78,30.00,10.0,Variable,4.6,-,N/A,,Mostly Cloudy,0,2013-07-25 14:53:00
9:53 AM,66.0,57.0,73,30.04,10.0,NW,3.5,-,N/A,,Clear,310,2013-07-25 15:53:00
10:14 AM,66.2,57.2,73,30.16,10.0,NW,3.5,-,N/A,,Mostly Cloudy,320,2013-07-25 16:14:00
10:53 AM,68.0,59.0,73,30.04,10.0,NE,9.2,-,N/A,,Overcast,40,2013-07-25 16:53:00
11:18 AM,69.8,57.2,64,30.16,10.0,NNE,11.5,-,N/A,,Scattered Clouds,30,2013-07-25 17:18:00
11:53 AM,69.1,57.9,68,30.04,10.0,NNE,6.9,-,N/A,,Partly Cloudy,30,2013-07-25 17:53:00
12:53 PM,73.0,59.0,61,30.04,10.0,ENE,4.6,-,N/A,,Clear,60,2013-07-25 18:53:00
1:53 PM,78.1,60.1,54,30.03,10.0,NNE,8.1,-,N/A,,Partly Cloudy,20,2013-07-25 19:53:00
2:53 PM,78.1,59.0,52,30.03,10.0,NNE,6.9,17.3,N/A,,Scattered Clouds,30,2013-07-25 20:53:00
3:53 PM,80.1,60.1,50,30.02,10.0,NE,10.4,16.1,N/A,,Scattered Clouds,50,2013-07-25 21:53:00
4:53 PM,82.0,55.9,41,30.01,10.0,NE,11.5,-,N/A,,Partly Cloudy,40,2013-07-25 22:53:00
5:53 PM,79.0,54.0,42,30.02,10.0,NNE,12.7,-,N/A,,Partly Cloudy,30,2013-07-25 23:53:00
6:53 PM,80.1,54.0,40,30.02,10.0,NNE,13.8,-,N/A,,Partly Cloudy,20,2013-07-26 00:53:00
7:53 PM,73.9,54.0,50,30.04,10.0,NE,6.9,-,N/A,,Clear,40,2013-07-26 01:53:00
8:53 PM,68.0,57.0,68,30.08,10.0,ENE,5.8,-,N/A,,Clear,70,2013-07-26 02:53:00
9:53 PM,66.9,57.0,70,30.12,10.0,East,6.9,-,N/A,,Clear,80,2013-07-26 03:53:00
10:53 PM,63.0,57.0,81,30.13,10.0,East,3.5,-,N/A,,Clear,100,2013-07-26 04:53:00
11:53 PM,63.0,57.0,81,30.14,10.0,ESE,4.6,-,N/A,,Clear,110,2013-07-26 05:53:00